Simultaneous Nadir Overpasses (SNOs) Predictions

Prediction of SNOs between AQUA and NOAA-19 Satellite Orbit:

Table of predicted SNOs for the next 14.0 days since TLE Epoch: 5/13/2023
Index Date (AQUA) Time (AQUA) Lat,Lon (AQUA) SZA (AQUA ) Date (NOAA-19) Time (NOAA-19) Lat,Lon (NOAA-19) SZA (NOAA-19 ) Distance(km) Time Diff (sec)
1 05/13/2023 04:19:33 -76.55, -75.11 121.65 05/13/2023 04:18:28 -76.53, -75.05 121.66 3.00 65
2 05/13/2023 05:08:59 76.58, 92.42 58.39 05/13/2023 05:09:21 76.57, 92.42 58.38 0.84 22
3 05/15/2023 09:51:15 76.53, 22.05 57.80 05/15/2023 09:50:54 76.55, 22.00 57.82 2.52 21
4 05/15/2023 10:40:43 -76.72,-170.96 122.00 05/15/2023 10:41:54 -76.75,-169.92 122.02 26.80 71
5 05/17/2023 14:33:31 76.52, -48.46 57.28 05/17/2023 14:32:27 76.52, -48.44 57.29 0.53 64
6 05/17/2023 15:22:56 -76.57, 119.03 122.68 05/17/2023 15:23:30 -76.58, 119.04 122.67 1.86 34
7 05/19/2023 20:05:11 -76.55, 48.55 123.18 05/19/2023 20:05:03 -76.53, 48.50 123.20 2.69 8
8 05/19/2023 20:54:42 76.82,-144.78 57.13 05/19/2023 20:55:51 76.83,-142.97 57.05 45.79 69
9 05/22/2023 00:47:25 -76.52, -21.91 123.66 05/22/2023 00:46:35 -76.50, -21.90 123.67 2.33 50
10 05/22/2023 01:36:51 76.57, 145.60 56.39 05/22/2023 01:37:29 76.57, 145.62 56.38 0.60 38
11 05/24/2023 06:19:04 76.54, 75.16 55.93 05/24/2023 06:19:01 76.55, 75.25 55.94 2.86 3
12 05/26/2023 11:01:16 76.50, 4.74 55.50 05/26/2023 11:00:34 76.49, 4.68 55.50 2.59 42



Historial Predications of SNOs between AQUA and NOAA-19
